time_stamp(utc),avg(mph),gust(mph),direction(deg),12m_air_temp(f),sonic_u(cm/s),sonic_v(cm/s),sonic_w(cm/s),pressure,2m_air_temp(f),pyranometer(W/m^2)
"2022-01-17 00:00:18+00",21.6,24.6,,,1094,18,11,1011.86,40.7,0
"2022-01-17 00:05:18+00",26.0,29.0,,,4440,87,-1981,1011.55,40.8,0
"2022-01-17 00:10:18+00",24.0,27.0,,,3197,63,-1237,1011.29,41,0
"2022-01-17 00:15:18+00",24.7,28.7,,,2786,-16,-950,1011.03,41,0
"2022-01-17 00:25:18+00",27.1,30.1,,,1643,110,-108,1010.47,41.2,0
"2022-01-17 00:30:18+00",28.0,33.0,,,5090,43,-2254,1010.32,41.5,0
"2022-01-17 00:35:18+00",25.0,30.0,,,2941,-7,-1018,1010.18,41.5,0
"2022-01-17 00:40:18+00",25.1,29.1,,,3918,27,-1655,1010.09,41.6,0
"2022-01-17 00:50:18+00",28.4,34.4,,,5083,71,-2291,1009.22,41.9,0
"2022-01-17 01:00:18+00",25.6,28.6,,,1571,86,-163,1008.87,42.2,0
"2022-01-17 01:10:18+00",26.4,29.4,,,4349,35,-1820,1008.69,42.5,0
"2022-01-17 01:15:18+00",25.0,30.0,,,2220,15,-547,1008.46,42.6,0
"2022-01-17 01:20:18+00",25.1,29.1,,,1978,11,-428,1008.21,42.8,0
"2022-01-17 01:25:18+00",27.3,31.3,,,4144,-3,-1644,1007.88,43,0
"2022-01-17 01:30:18+00",28.5,31.5,,,4171,74,-1651,1007.52,43.1,0
"2022-01-17 01:35:18+00",26.6,29.6,,,4752,-28,-2044,1007.3,43.2,0
"2022-01-17 01:40:18+00",28.8,33.8,,,3733,25,-1364,1007.07,43.4,0
"2022-01-17 01:45:18+00",28.3,31.3,,,4154,40,-1634,1006.61,43.4,0
"2022-01-17 01:50:18+00",28.3,32.3,,,4141,129,-1715,1006.55,43.4,0
"2022-01-17 01:55:18+00",27.6,30.6,,,3383,8,-1167,1006.37,43.5,0
"2022-01-17 02:05:18+00",27.6,31.6,,,4252,14,-1804,1005.42,43.8,0
"2022-01-17 02:10:18+00",30.1,33.1,,,4888,-8,-2035,1005.11,44.1,0
"2022-01-17 02:15:18+00",29.8,33.8,,,2507,-43,-569,1004.96,44.2,0
"2022-01-17 02:20:18+00",31.2,36.2,,,4196,-66,-1500,1004.51,44.4,0
"2022-01-17 02:35:18+00",33.5,37.5,,,4233,-33,-1552,1003.58,,0
"2022-01-17 02:40:18+00",34.2,40.2,,,3473,-38,-1026,1003.28,,0
"2022-01-17 02:45:18+00",29.5,36.5,,,1614,-26,-47,1003.16,,0
"2022-01-17 02:50:18+00",31.3,35.3,,,2559,-44,-541,1002.86,,0
"2022-01-17 02:55:18+00",31.4,36.4,,,4463,-77,-1632,1002.47,45,0
"2022-01-17 03:00:18+00",35.2,41.2,,,4205,-92,-1362,1002.34,,0
"2022-01-17 03:05:18+00",31.8,38.8,,,3262,-86,-955,1002.21,,0
"2022-01-17 03:10:18+00",33.4,36.4,,,3298,-63,-971,1001.94,,0
"2022-01-17 03:15:18+00",33.2,36.2,,,3759,-55,-1240,1001.79,,0
"2022-01-17 03:20:18+00",34.4,40.4,,,2679,-22,-576,1001.52,,0
"2022-01-17 03:25:18+00",32.9,37.9,,,3480,-74,-1044,1001.34,45.4,0
"2022-01-17 03:30:18+00",35.9,41.9,,,4654,-59,-1708,1001,45.5,0
"2022-01-17 03:35:18+00",35.9,38.9,,,4765,-99,-1754,1000.55,,0
"2022-01-17 03:40:18+00",33.4,38.4,,,4561,-56,-1684,1000.31,,0
"2022-01-17 03:45:18+00",34.3,39.3,,,4160,-105,-1515,999.94,,0
"2022-01-17 03:50:18+00",35.0,39.0,,,3868,-39,-1241,999.67,,0
"2022-01-17 03:55:18+00",32.2,38.2,,,2693,-84,-595,999.48,45.9,0
"2022-01-17 04:00:18+00",35.0,42.0,,,3704,-78,-1156,999.07,46.1,0
"2022-01-17 04:05:18+00",33.7,41.7,,,3119,-66,-809,998.8,,0
"2022-01-17 04:10:18+00",31.0,37.0,,,3967,-70,-1410,998.35,,0
"2022-01-17 04:15:18+00",33.4,37.4,,,3785,-19,-1241,997.93,,0
"2022-01-17 04:20:18+00",34.2,40.2,,,2518,24,-451,997.64,,0
"2022-01-17 04:25:18+00",37.1,42.1,,,3330,6,-878,997.13,46.3,0
"2022-01-17 04:30:18+00",33.9,39.9,,,2849,37,-642,996.65,,0
"2022-01-17 04:35:18+00",33.0,37.0,,,3401,-8,-1011,996.36,,0
"2022-01-17 04:40:18+00",35.2,40.2,,,4176,-30,-1390,995.97,,0
"2022-01-17 04:45:18+00",37.7,45.7,,,4469,-40,-1522,995.65,,0
"2022-01-17 04:50:18+00",31.6,35.6,,,2615,59,-572,995.42,,0
"2022-01-17 04:55:18+00",34.6,42.6,,,4375,15,-1538,994.83,,0
"2022-01-17 05:00:18+00",33.8,37.8,,,3342,43,-984,994.65,,0
"2022-01-17 05:05:18+00",36.8,43.8,,,3260,123,-823,993.92,46.6,0
"2022-01-17 05:10:18+00",34.5,39.5,,,3661,70,-1057,993.45,46.7,0
"2022-01-17 05:15:18+00",40.9,46.9,,,4827,-41,-1696,993.22,,0
"2022-01-17 05:20:18+00",39.2,43.2,,,4532,104,-1443,992.78,47,0
"2022-01-17 05:25:18+00",37.8,44.8,,,4316,44,-1402,992.52,46.9,0
"2022-01-17 05:30:18+00",40.7,45.7,,,4565,-13,-1498,992.23,,0
"2022-01-17 05:35:18+00",39.6,43.6,,,4012,-37,-1204,991.84,,0
"2022-01-17 05:40:18+00",40.2,47.2,,,4271,-14,-1289,991.54,,0
"2022-01-17 05:45:18+00",37.1,42.1,,,3496,116,-950,991.21,,0
"2022-01-17 05:50:18+00",36.6,41.6,,,3381,32,-942,991.07,,0
"2022-01-17 05:55:18+00",34.7,41.7,,,3007,69,-728,990.62,,0
"2022-01-17 06:00:18+00",34.9,39.9,,,3597,-4,-1022,990.36,,0
"2022-01-17 06:05:18+00",36.2,41.2,,,3937,-39,-1224,990.33,,0
"2022-01-17 06:10:18+00",33.0,38.0,,,2936,-217,-758,990.98,47.8,0
"2022-01-17 06:15:18+00",32.1,38.1,,,236,-852,495,992.33,48,0
"2022-01-17 06:20:18+00",30.6,39.6,,,662,-930,180,992.33,,0
"2022-01-17 06:25:18+00",26.2,34.2,,,542,-1036,-155,992.36,,0
"2022-01-17 06:30:18+00",25.7,32.7,,,496,-1046,-112,992.44,47.3,0
"2022-01-17 06:35:18+00",23.7,31.7,,,430,-962,-39,991.98,47.4,0
"2022-01-17 06:40:18+00",23.7,27.7,,,549,-860,65,991.64,46.3,0
"2022-01-17 06:45:18+00",19.9,20.9,,,610,-612,28,991.37,45.7,0
"2022-01-17 06:50:18+00",18.5,20.5,,,570,-610,-7,991.34,45.3,0
"2022-01-17 06:55:18+00",17.3,20.3,,,586,-505,17,990.85,45.4,0
"2022-01-17 07:00:18+00",17.1,20.1,,,663,-407,19,990.16,45.5,0
"2022-01-17 07:05:18+00",16.9,18.9,,,710,-240,37,989.51,45.2,0
"2022-01-17 07:10:18+00",17.1,18.1,,,752,-121,43,988.95,44.9,0
"2022-01-17 07:15:18+00",21.0,24.0,,,1147,99,-38,987.77,44.6,0
"2022-01-17 07:20:18+00",20.5,22.5,,,1228,33,-103,987.77,44.7,0
"2022-01-17 07:25:18+00",15.9,17.9,,,688,-135,28,988.39,44.6,0
"2022-01-17 07:30:18+00",17.2,20.2,,,733,-180,37,988.37,44.7,0
"2022-01-17 07:35:18+00",15.2,16.2,,,618,-306,17,988.69,44.5,0
"2022-01-17 07:40:18+00",16.1,19.1,,,553,-456,28,988.69,45,0
"2022-01-17 07:45:18+00",13.1,16.1,,,416,-395,18,988.63,45.7,0
"2022-01-17 07:50:18+00",14.3,16.3,,,511,-376,0,988.6,45.1,0
"2022-01-17 07:55:18+00",16.9,19.9,,,327,-649,7,988.62,45.6,0
"2022-01-17 08:00:18+00",17.6,21.6,,,243,-685,14,988.6,45.8,0
"2022-01-17 08:05:18+00",15.7,21.7,,,29,-683,-8,988.55,46.3,0
"2022-01-17 08:10:18+00",20.4,28.4,,,-194,-856,10,988.56,45.7,0
"2022-01-17 08:15:18+00",23.6,28.6,,,-280,-990,-4,988.5,44.5,0
"2022-01-17 08:20:18+00",21.7,30.7,,,-166,-897,4,988.33,43.7,0
"2022-01-17 08:25:18+00",19.3,25.3,,,-184,-804,-3,988.29,43.5,0
"2022-01-17 08:30:18+00",19.0,27.0,,,-196,-797,23,988.12,43.2,0
"2022-01-17 08:35:18+00",17.4,24.4,,,-143,-707,9,987.84,43,0
"2022-01-17 08:40:18+00",21.2,27.2,,,-173,-889,14,987.48,43.2,0
"2022-01-17 08:45:18+00",21.4,26.4,,,-247,-912,11,987.09,43,0
"2022-01-17 08:50:18+00",21.2,28.2,,,-236,-855,-4,986.96,42.8,0
"2022-01-17 08:55:18+00",21.2,28.2,,,-236,-881,-5,986.9,42.4,0
"2022-01-17 09:00:18+00",23.8,25.8,,,-303,-970,2,987.04,42.5,0
"2022-01-17 09:05:18+00",17.6,24.6,,,-199,-717,3,986.66,42.3,0
"2022-01-17 09:10:18+00",13.6,20.6,,,-113,-570,36,986.17,42.1,0
"2022-01-17 09:15:18+00",17.4,23.4,,,-144,-724,6,986.61,41.9,0
"2022-01-17 09:20:18+00",16.7,22.7,,,-159,-698,0,986.42,41.9,0
"2022-01-17 09:25:18+00",18.2,23.2,,,-175,-770,1,986.42,42,0
"2022-01-17 09:30:18+00",15.5,19.5,,,-131,-662,6,986.38,42,0
"2022-01-17 09:35:18+00",15.4,19.4,,,-162,-664,-8,986.22,41.9,0
"2022-01-17 09:40:18+00",17.9,21.9,,,-176,-740,-9,986.32,42.2,0
"2022-01-17 09:45:18+00",13.0,17.0,,,-123,-563,-10,986.2,42,0
"2022-01-17 09:50:18+00",11.0,13.0,,,-62,-461,3,985.86,41.9,0
"2022-01-17 09:55:18+00",13.9,16.9,,,-78,-603,-10,985.97,42.1,0
"2022-01-17 10:00:18+00",13.8,16.8,,,-60,-601,-32,985.9,42.2,0
"2022-01-17 10:05:18+00",13.9,21.9,,,-73,-580,-18,985.81,42.4,0
"2022-01-17 10:10:18+00",14.0,20.0,,,-111,-611,12,985.83,42.5,0
"2022-01-17 10:15:18+00",14.1,18.1,,,-142,-597,3,985.89,42.4,0
"2022-01-17 10:20:18+00",12.9,15.9,,,-102,-548,4,985.96,42.1,0
"2022-01-17 10:25:18+00",15.5,19.5,,,-175,-653,-5,986.11,42.2,0
"2022-01-17 10:30:18+00",17.2,21.2,,,-210,-708,3,986.12,42.3,0
"2022-01-17 10:35:18+00",23.3,29.3,,,-398,-963,4,986.1,42.8,0
"2022-01-17 10:40:18+00",26.8,31.8,,,-563,-1083,26,986.01,42.9,0
"2022-01-17 10:45:18+00",30.7,34.7,,,-736,-1200,26,985.95,42.8,0
"2022-01-17 10:50:18+00",29.7,32.7,,,-820,-1094,37,986.04,42.3,0
"2022-01-17 10:55:18+00",28.7,32.7,,,-827,-1044,24,985.93,41.8,0
"2022-01-17 11:00:18+00",28.5,31.5,,,-749,-1077,26,986.08,41.7,0
"2022-01-17 11:05:18+00",27.3,29.3,,,-739,-1028,38,986.09,41.6,0
"2022-01-17 11:10:18+00",30.0,33.0,,,-874,-1050,21,986.17,41.5,0
"2022-01-17 11:15:18+00",25.2,27.2,,,-719,-927,25,986.21,41.5,0
"2022-01-17 11:20:18+00",22.4,24.4,,,-633,-838,29,986.17,41.4,0
"2022-01-17 11:25:18+00",21.4,23.4,,,-585,-816,12,986.21,41.3,0
"2022-01-17 11:30:18+00",19.3,22.3,,,-432,-758,28,986.11,41.3,0
"2022-01-17 11:35:18+00",22.3,25.3,,,-429,-901,8,986.16,41.5,0
"2022-01-17 11:40:18+00",24.0,28.0,,,-447,-976,24,986.04,41.4,0
"2022-01-17 11:45:18+00",24.5,27.5,,,-512,-979,9,985.97,41.5,0
"2022-01-17 11:50:18+00",29.0,32.0,,,-743,-1118,32,985.97,41.4,0
"2022-01-17 11:55:18+00",27.0,32.0,,,-723,-1012,33,986.15,41.5,0
"2022-01-17 12:00:18+00",25.0,28.0,,,-691,-934,23,986.28,41.2,0
"2022-01-17 12:05:18+00",32.3,38.3,,,-902,-1174,30,986.4,41.1,0
"2022-01-17 12:10:18+00",32.4,41.4,,,-979,-1044,64,986.56,40.3,0
"2022-01-17 12:15:18+00",33.8,38.8,,,-1053,-1020,73,986.54,39.7,0
"2022-01-17 12:20:18+00",30.9,34.9,,,-909,-1079,25,986.47,39.2,0
"2022-01-17 12:25:18+00",30.5,36.5,,,-760,-1172,12,986.53,39.3,0
"2022-01-17 12:30:18+00",28.7,32.7,,,-816,-1076,28,986.51,39.4,0
"2022-01-17 12:35:18+00",26.4,30.4,,,-709,-1010,41,986.74,39.5,0
"2022-01-17 12:40:18+00",29.2,31.2,,,-761,-1122,11,986.83,39.4,0
"2022-01-17 12:45:18+00",28.2,31.2,,,-703,-1076,24,986.89,39.3,0
"2022-01-17 12:50:18+00",27.2,30.2,,,-742,-1037,39,987.04,39.3,0
"2022-01-17 12:55:18+00",31.6,38.6,,,-1040,-962,52,987.1,39.2,0
"2022-01-17 13:00:18+00",27.8,29.8,,,-780,-999,54,987.13,37.8,0
"2022-01-17 13:05:18+00",32.2,35.2,,,-816,-1229,29,987.08,37.9,0
"2022-01-17 13:10:18+00",30.8,33.8,,,-864,-1142,41,987.1,38.1,0
"2022-01-17 13:15:18+00",29.5,36.5,,,-811,-1067,32,987.05,38.3,0
"2022-01-17 13:20:18+00",35.4,39.4,,,-1080,-1074,47,987.11,38.5,0
"2022-01-17 13:25:18+00",34.6,38.6,,,-1194,-967,94,987.04,38,37.5
"2022-01-17 13:30:18+00",29.3,33.3,,,-1065,-778,51,986.93,38,71.5
"2022-01-17 13:35:18+00",28.8,32.8,,,-1075,-753,62,986.87,38.2,1
"2022-01-17 13:40:18+00",29.6,34.6,,,-1095,-782,30,986.89,38.5,99.9
"2022-01-17 13:45:18+00",25.0,29.0,,,-963,-650,56,986.77,38.7,94.6
"2022-01-17 13:50:18+00",25.6,29.6,,37.9,-1007,-663,58,986.82,38.9,61.2
"2022-01-17 13:55:18+00",22.7,25.7,,,-927,-587,52,986.85,38.7,4.2
"2022-01-17 14:00:18+00",25.4,28.4,,,-1094,-595,59,986.76,38.5,2.4
"2022-01-17 14:05:18+00",21.8,23.8,,,-906,-561,42,986.8,38.3,0
"2022-01-17 14:10:18+00",21.3,27.3,,,-701,-633,47,986.85,38,0
"2022-01-17 14:15:18+00",26.3,31.3,,,-910,-726,38,986.88,37.8,0
"2022-01-17 14:20:18+00",30.1,33.1,,,-972,-884,28,986.97,37.8,0
"2022-01-17 14:25:18+00",27.0,31.0,,,-830,-876,57,987.06,37.7,0
"2022-01-17 14:30:18+00",29.0,32.0,,,-905,-890,34,987.11,37.6,0
"2022-01-17 14:35:18+00",30.0,35.0,,,-904,-984,17,987.23,37.5,0
"2022-01-17 14:40:18+00",24.9,28.9,,,-776,-799,41,987.4,37.6,0
"2022-01-17 14:45:18+00",32.7,36.7,,,-1072,-930,40,987.49,37.5,0
"2022-01-17 14:50:18+00",29.2,35.2,,,-885,-973,40,987.55,37.6,0
"2022-01-17 14:55:18+00",31.4,35.4,,,-1008,-935,50,987.63,37.5,0
"2022-01-17 15:00:18+00",24.0,29.0,,,-839,-688,57,987.58,37.6,0
"2022-01-17 15:05:18+00",27.8,35.8,,,-922,-858,49,987.58,37.5,0
"2022-01-17 15:10:18+00",26.6,30.6,,,-969,-715,26,987.44,37.5,0.1
"2022-01-17 15:15:18+00",25.4,28.4,,,-896,-691,32,987.47,37.6,49.3
"2022-01-17 15:20:18+00",21.7,25.7,,,-845,-588,50,987.33,37.8,52.1
"2022-01-17 15:25:18+00",23.1,28.1,,,-846,-634,71,987.19,38,64.1
"2022-01-17 15:30:18+00",20.6,24.6,,,-861,-508,28,987.21,38.1,32
"2022-01-17 15:35:18+00",20.3,24.3,,,-854,-488,53,987.36,38,0.7
"2022-01-17 15:40:18+00",20.7,24.7,,37.8,-806,-546,53,987.55,37.9,0
"2022-01-17 15:45:18+00",25.4,28.4,,,-1041,-638,34,987.8,37.8,0
"2022-01-17 15:50:18+00",23.1,30.1,,,-965,-515,22,987.69,37.8,0
"2022-01-17 15:55:18+00",26.2,31.2,,,-1104,-484,41,987.7,37.7,0
"2022-01-17 16:00:18+00",22.4,28.4,,,-906,-538,31,987.78,37.7,3.1
"2022-01-17 16:05:18+00",25.3,29.3,,,-1060,-515,49,987.8,37.8,5.1
"2022-01-17 16:10:18+00",22.8,26.8,,,-965,-556,54,987.86,37.9,21.3
"2022-01-17 16:15:18+00",23.9,27.9,,,-974,-384,54,987.93,38,20.3
"2022-01-17 16:20:18+00",29.4,33.4,,,-1222,-745,37,987.88,38.1,15.7
"2022-01-17 16:25:18+00",22.4,26.4,,38.1,-956,-486,50,988.08,38.1,0.7
"2022-01-17 16:30:18+00",27.6,31.6,,,-1028,-720,37,987.88,38,12.3
"2022-01-17 16:35:18+00",28.6,32.6,,,-1105,-759,51,987.8,38.2,58.5
"2022-01-17 16:40:18+00",20.0,25.0,,,-811,-474,80,987.7,38.4,15.2
"2022-01-17 16:45:18+00",25.2,29.2,,,-1072,-519,53,987.54,38.4,1.2
"2022-01-17 16:50:18+00",20.4,22.4,,,-838,-518,34,987.49,38.3,0
"2022-01-17 16:55:18+00",21.8,26.8,,,-853,-569,46,987.45,38.1,0
"2022-01-17 17:00:18+00",24.4,28.4,,,-957,-614,40,987.57,38.1,0
"2022-01-17 17:05:18+00",23.7,26.7,,,-909,-627,42,988.23,38.1,0
"2022-01-17 17:10:18+00",21.8,27.8,,,-869,-582,58,988.84,38.1,0
"2022-01-17 17:15:18+00",22.9,26.9,,,-974,-556,35,987.83,38.1,4.4
"2022-01-17 17:20:18+00",28.7,40.7,,,-1186,-682,52,987.86,38.3,53.5
"2022-01-17 17:25:18+00",23.7,31.7,,,-994,-509,55,987.24,38.6,89.5
"2022-01-17 17:30:18+00",25.5,28.5,,,-1062,-497,51,987.23,38.8,73.3
"2022-01-17 17:35:18+00",20.7,24.7,,,-886,-452,29,987.23,38.9,71.2
"2022-01-17 17:40:18+00",18.8,21.8,,,-787,-473,49,987.43,39.1,36.5
"2022-01-17 17:45:18+00",22.4,25.4,,,-914,-482,24,987.52,39.1,3.9
"2022-01-17 17:50:18+00",20.3,23.3,,,-853,-517,16,987.56,38.9,35.9
"2022-01-17 17:55:18+00",20.1,25.1,,,-782,-536,22,987.29,38.9,8.4
"2022-01-17 18:00:18+00",25.1,30.1,,,-859,-713,24,987.51,38.8,0
"2022-01-17 18:05:18+00",20.0,24.0,,,-764,-538,41,987.31,38.7,0.2
"2022-01-17 18:10:18+00",19.9,24.9,,,-795,-513,44,987.32,38.7,5.1
"2022-01-17 18:15:18+00",21.1,25.1,,,-872,-384,64,987.33,38.9,32
"2022-01-17 18:20:18+00",26.0,30.0,,,-1073,-520,33,987.32,39.1,32.1
"2022-01-17 18:25:18+00",25.0,29.0,,,-1001,-384,47,987.37,39.4,57.6
"2022-01-17 18:30:18+00",21.2,24.2,,39.7,-815,-572,48,987.31,39.7,72.4
"2022-01-17 18:35:18+00",18.4,22.4,,,-730,-475,53,987.56,39.7,4.4
"2022-01-17 18:40:18+00",26.3,33.3,,,-1097,-543,44,987.53,39.5,0
"2022-01-17 18:45:18+00",23.0,26.0,,39.2,-964,-531,26,987.67,39.3,14.3
"2022-01-17 18:50:18+00",30.7,36.7,,,-1266,-570,53,987.69,39.3,0
"2022-01-17 18:55:18+00",27.1,36.1,,39.2,-1132,-416,60,987.76,39.2,0
"2022-01-17 19:00:18+00",26.2,36.2,,,-1090,-401,76,987.92,39,0
"2022-01-17 19:05:18+00",30.0,35.0,,,-1218,-404,70,988.05,38.8,0
"2022-01-17 19:10:18+00",27.9,34.9,,,-1196,-244,76,988.02,38.7,13
"2022-01-17 19:15:18+00",26.1,32.1,,,-1158,-196,63,988.08,38.8,24.1
"2022-01-17 19:20:18+00",27.0,32.0,,,-1152,-292,54,988.27,38.8,15.9
"2022-01-17 19:25:18+00",31.8,35.8,,,-1316,-409,42,988.37,38.7,17.7
"2022-01-17 19:30:18+00",31.9,37.9,,,-1333,-439,58,988.48,38.5,23.3
"2022-01-17 19:35:18+00",27.1,32.1,,38.4,-1157,-260,48,988.56,38.5,25.1
"2022-01-17 19:40:18+00",30.6,34.6,,,-1308,-277,44,988.57,38.5,19
"2022-01-17 19:45:18+00",28.0,31.0,,,-1239,-166,36,988.78,38.4,16.9
"2022-01-17 19:50:18+00",23.6,27.6,,,-1017,-192,56,988.79,38.4,15.8
"2022-01-17 19:55:18+00",29.3,34.3,,,-1209,-322,88,988.84,38.4,12.8
"2022-01-17 20:00:18+00",30.6,36.6,,38.4,-1311,-277,42,988.87,38.4,19.8
"2022-01-17 20:05:18+00",27.5,30.5,,,-1198,-159,60,989.09,38.4,14.2
"2022-01-17 20:10:18+00",27.7,31.7,,,-1169,-262,71,989.17,38.4,16.1
"2022-01-17 20:15:18+00",31.4,36.4,,,-1314,-373,35,989.18,38.4,11.2
"2022-01-17 20:20:18+00",28.9,33.9,,38.3,-1287,-166,58,989.12,38.3,5.1
"2022-01-17 20:25:18+00",27.1,32.1,,,-1185,-179,62,989.18,38.2,3.7
"2022-01-17 20:30:18+00",27.0,31.0,,,-1167,-232,57,989.37,38.2,10.5
"2022-01-17 20:35:18+00",26.7,31.7,,38.4,-1160,-173,47,989.47,38.3,0
"2022-01-17 20:40:18+00",23.3,34.3,,38.4,-987,-280,87,989.5,38.2,0
"2022-01-17 20:45:18+00",23.4,26.4,,38.3,-987,-256,76,989.64,38.2,0
"2022-01-17 20:50:18+00",27.1,31.1,,,-1182,-185,56,989.69,38.1,0
"2022-01-17 20:55:18+00",30.4,35.4,,,-1264,-390,63,989.69,37.9,0
"2022-01-17 21:00:18+00",24.0,27.0,,38,-1028,-235,40,989.88,37.8,0
"2022-01-17 21:05:18+00",31.4,34.4,,,-1356,-312,45,990.04,37.6,0
"2022-01-17 21:10:18+00",26.8,29.8,,,-1146,-300,51,990.23,37.5,0
"2022-01-17 21:15:18+00",27.8,30.8,,37.7,-1180,-245,62,990.28,37.4,0
"2022-01-17 21:20:18+00",24.7,29.7,,37.5,-1053,-212,69,990.31,37.3,0
"2022-01-17 21:25:18+00",24.4,28.4,,,-1055,-244,31,990.39,37.3,0
"2022-01-17 21:30:18+00",22.9,27.9,,,-958,-283,37,990.46,37.1,0
"2022-01-17 21:35:18+00",26.9,31.9,,37.3,-1168,-179,31,990.52,37,0
"2022-01-17 21:40:18+00",25.3,29.3,,37.1,-1034,-266,53,990.6,36.9,0
"2022-01-17 21:45:18+00",23.8,28.8,,,-1032,-189,37,990.75,36.8,0
"2022-01-17 21:50:18+00",24.2,31.2,,,-1009,-257,78,990.78,36.6,0
"2022-01-17 21:55:18+00",29.4,32.4,,,-1236,-324,42,990.87,36.5,0
"2022-01-17 22:00:18+00",26.0,32.0,,36.5,-1132,-208,67,991.05,36.4,0
"2022-01-17 22:05:18+00",29.3,36.3,,36.5,-1310,-15,76,991.25,36.3,0
"2022-01-17 22:10:18+00",23.3,27.3,,,-1018,-140,33,991.4,36.1,0
"2022-01-17 22:15:18+00",24.0,29.0,,,-1018,-240,58,991.57,36,0
"2022-01-17 22:20:18+00",29.1,36.1,,,-1269,-186,61,991.75,35.8,0
"2022-01-17 22:25:18+00",26.0,30.0,,35.7,-1154,-83,72,991.57,35.6,0
"2022-01-17 22:30:18+00",28.3,32.3,,,-1229,-153,88,991.44,35.4,0
"2022-01-17 22:35:18+00",31.3,35.3,,35.2,-1381,-131,48,991.8,35.2,0
"2022-01-17 22:40:18+00",23.1,28.1,,,-968,-236,62,992.01,35.1,0
"2022-01-17 22:45:18+00",22.3,26.3,,,-951,-203,64,992.08,35.1,0
"2022-01-17 22:50:18+00",27.3,31.3,,35.1,-1178,-176,46,992.16,35,0
"2022-01-17 22:55:18+00",27.0,34.0,,,-1139,-368,54,992.25,34.9,0
"2022-01-17 23:00:18+00",23.3,28.3,,35,-999,-108,73,992.46,34.9,0
"2022-01-17 23:05:18+00",26.0,34.0,,35,-1138,-127,56,992.54,34.8,0
"2022-01-17 23:10:18+00",21.2,25.2,,,-923,-129,60,992.69,34.8,0
"2022-01-17 23:15:18+00",24.1,29.1,,,-1056,-164,43,992.75,34.8,0
"2022-01-17 23:20:18+00",26.8,29.8,,,-1170,-164,43,992.82,34.7,0
"2022-01-17 23:25:18+00",23.7,25.7,,34.9,-1068,-95,43,992.96,34.7,0
"2022-01-17 23:30:18+00",22.1,25.1,,,-974,-97,55,992.91,34.7,0
"2022-01-17 23:35:18+00",24.3,28.3,,,-1079,-94,65,993,34.7,0
"2022-01-17 23:40:18+00",22.4,24.4,,34.9,-984,-125,47,993.18,34.7,0
"2022-01-17 23:45:18+00",26.3,31.3,,,-1174,-31,43,993.16,34.7,0
"2022-01-17 23:50:18+00",20.4,26.4,,,-892,-105,19,993.26,34.7,0
"2022-01-17 23:55:18+00",28.5,31.5,,35.1,-1269,-71,45,993.25,34.8,0
